This is the latest recevied weather packets stored in our database for station/object N1YZ. If no packets are shown the sender has not sent any weather packets the latest 10 day(s).
| Time | Temp. | Humidity | Pressure | Rain* | Wind** | Luminosity | Snow |
|---|---|---|---|---|---|---|---|
| 1787933738 | 29.44° C | 72% | 1037.1 hPa | 0 mm | - | 130 W/m² | - |
| 1787933434 | 29.44° C | 74% | 1036.8 hPa | 0 mm | - | 87 W/m² | - |
| 1787933133 | 29.44° C | 75% | 1037 hPa | 0 mm | - | 62 W/m² | - |
| 1787932827 | 28.89° C | 74% | 1036.9 hPa | 0 mm | - | 93 W/m² | - |
| 1787932521 | 28.89° C | 75% | 1037.1 hPa | 0 mm | - | 60 W/m² | - |
| 1787932216 | 28.89° C | 77% | 1037.1 hPa | 0 mm | - | 54 W/m² | - |
| 1787931915 | 28.89° C | 71% | 1036.9 hPa | 0 mm | - | 58 W/m² | - |
| 1787931609 | 29.44° C | 75% | 1036.9 hPa | 0 mm | - | 66 W/m² | - |
| 1787931304 | 29.44° C | 75% | 1036.9 hPa | 0 mm | - | 54 W/m² | - |
| 1787931004 | 30° C | 76% | 1036.9 hPa | 0 mm | - | 55 W/m² | - |
| 1787930703 | 29.44° C | 76% | 1036.7 hPa | 0 mm | - | 89 W/m² | - |
| 1787930397 | 29.44° C | 74% | 1036.9 hPa | 0 mm | - | 77 W/m² | - |
| 1787930093 | 30° C | 77% | 1036.7 hPa | 0 mm | - | 45 W/m² | - |
| 1787929791 | 30° C | 74% | 1036.8 hPa | 0 mm | - | 114 W/m² | - |
| 1787929486 | 30° C | 75% | 1037 hPa | 0 mm | - | 383 W/m² | - |
| 1787929184 | 29.44° C | 78% | 1036.9 hPa | 0 mm | - | 332 W/m² | - |
| 1787928878 | 30° C | 75% | 1037.1 hPa | 0 mm | - | 174 W/m² | - |
| 1787928573 | 31.11° C | 75% | 1037.1 hPa | 0 mm | - | 111 W/m² | - |
| 1787928272 | 31.67° C | 74% | 1037.1 hPa | 0 mm | - | 186 W/m² | - |
| 1787927971 | 30.56° C | 76% | 1036.9 hPa | 0 mm | - | 348 W/m² | - |
| 1787927666 | 30.56° C | 77% | 1036.8 hPa | 0 mm | - | 344 W/m² | - |
| 1787927365 | 29.44° C | 79% | 1037.1 hPa | 0 mm | - | 330 W/m² | - |
| 1787927062 | 28.33° C | 84% | 1037 hPa | 0 mm | - | 316 W/m² | - |
| 1787926756 | 26.67° C | 92% | 1037.1 hPa | 0 mm | - | 304 W/m² | - |
| 1787926455 | 25.56° C | 93% | 1037.1 hPa | 0 mm | - | 226 W/m² | - |
* Rain latest hour (hover to see other rain measurements)
** Current wind speed in m/s (hover to see current wind gust speed)